This is the latest recevied weather packets stored in our database for station/object KE5KUL-13. If no packets are shown the sender has not sent any weather packets the latest 10 day(s).
| Time | Temp. | Humidity | Pressure | Rain* | Wind** | Luminosity | Snow |
|---|---|---|---|---|---|---|---|
| 1777946417 | 25.56° C | 15% | 1005.6 hPa | 0 mm | - | - | - |
| 1777945817 | 25.56° C | 15% | 1005.4 hPa | 0 mm | - | - | - |
| 1777945218 | 26.11° C | 14% | 1005.2 hPa | 0 mm | - | - | - |
| 1777944617 | 26.11° C | 14% | 1005 hPa | 0 mm | - | - | - |
| 1777944017 | 26.67° C | 14% | 1004.9 hPa | 0 mm | - | - | - |
| 1777943417 | 27.22° C | 14% | 1004.8 hPa | 0 mm | - | - | - |
| 1777942817 | 27.22° C | 13% | 1005.1 hPa | 0 mm | - | - | - |
| 1777942217 | 27.78° C | 13% | 1005.1 hPa | 0 mm | - | - | - |
| 1777941617 | 27.78° C | 13% | 1005.2 hPa | 0 mm | - | - | - |
| 1777941017 | 28.33° C | 13% | 1005.3 hPa | 0 mm | - | - | - |
| 1777940417 | 28.33° C | 13% | 1005.3 hPa | 0 mm | - | - | - |
| 1777939817 | 28.33° C | 13% | 1005.3 hPa | 0 mm | - | - | - |
| 1777939217 | 28.89° C | 12% | 1005.5 hPa | 0 mm | - | - | - |
| 1777938617 | 28.89° C | 13% | 1005.7 hPa | 0 mm | - | - | - |
| 1777938017 | 29.44° C | 19% | 1005.5 hPa | 0 mm | - | - | - |
| 1777937417 | 29.44° C | 20% | 1005.7 hPa | 0 mm | - | - | - |
| 1777936819 | 29.44° C | 20% | 1005.7 hPa | 0 mm | - | - | - |
| 1777936219 | 29.44° C | 19% | 1005.7 hPa | 0 mm | - | - | - |
| 1777935617 | 30° C | 20% | 1006.2 hPa | 0 mm | - | - | - |
| 1777935017 | 30.56° C | 19% | 1006.2 hPa | 0 mm | - | - | - |
| 1777934419 | 31.11° C | 18% | 1006.5 hPa | 0 mm | - | - | - |
| 1777933819 | 31.67° C | 17% | 1006.6 hPa | 0 mm | - | - | - |
| 1777933219 | 31.67° C | 16% | 1006.8 hPa | 0 mm | - | - | - |
| 1777932617 | 31.11° C | 16% | 1006.8 hPa | 0 mm | - | - | - |
| 1777932019 | 32.22° C | 15% | 1007.2 hPa | 0 mm | - | - | - |
* Rain latest hour (hover to see other rain measurements)
** Current wind speed in m/s (hover to see current wind gust speed)